Regional Weather Roundup
Issued by NWS

Home | Current Version | Previous Version | Graphics & Text | Print | Product List | Glossary On
Versions: 1 2 3 4 5 6 7 8 9 10 11 12 13 14 15 16 17 18 19 20 21 22 23 24 25 26 27 28 29 30 31 32 33 34 35 36 37 38 39 40 41 42 43 44 45 46 47 48 49 50
396
ASUS43 KDMX 232301
RWRIA

WEATHER ROUNDUP FOR IOWA
NATIONAL WEATHER SERVICE DES MOINES IA
600 PM CDT TUE MAY 23 2017

NOTE: "FAIR" INDICATES FEW OR NO CLOUDS BELOW 12,000 FEET WITH NO
SIGNIFICANT WEATHER AND/OR OBSTRUCTIONS TO VISIBILITY.

* - THESE STATIONS ARE NOT NWS STATIONS...THUS NOT UNDER NWS
QUALITY CONTROL.  THEY ALSO DO NOT REPORT WEATHER SUCH
AS PRECIPITATION OR FOG.

IAZ001>003-012>014-020>022-031>034-043>046-240000-
   NORTHWEST IOWA

CITY           SKY/WX    TMP DP  RH WIND       PRES   REMARKS
CARROLL *      CLOUDY    55  48  76 NW9       29.79S
CHEROKEE *     MOSUNNY   55  48  78 N9G18     29.81F
DENISON *      CLOUDY    55  45  67 NW13G18   29.82S
LE MARS *      CLOUDY    55  48  76 N12G22    29.84S
ORANGE CITY *  LGT RAIN  52  46  82 N10       29.83S
SHELDON *      MOSUNNY   54  46  76 N13G20      N/A
SIOUX CITY     PTSUNNY   56  48  74 NW14      29.83S
SPENCER        CLOUDY    55  47  74 N15       29.80S
STORM LAKE *     N/A     57  43  58 N14G22    29.79F
$$

IAZ055>058-069>071-079>083-090>094-240000-
   SOUTHWEST IOWA

CITY           SKY/WX    TMP DP  RH WIND       PRES   REMARKS
ATLANTIC *     CLOUDY    55  46  71 NW14      29.81R
AUDUBON *      HVY RAIN  52  46  82 N13G25    29.82R
CLARINDA *     PTSUNNY   61  45  55 NW13G20   29.82F
COUNCIL BLFS * LGT RAIN  52  50  93 NW14      29.83R
CRESTON *      CLOUDY    55  48  76 W14       29.80S
HARLAN  *      LGT RAIN  52  48  87 NW14      29.85S
LAMONI         LGT RAIN  56  46  69 NW9       29.78S
RED OAK *      PTSUNNY   59  46  63 N16G22    29.81S
SHENANDOAH *   CLOUDY    59  45  58 NW10G18   29.82S
$$

IAZ047>049-059>061-072>074-084-240000-
   CENTRAL IOWA

CITY           SKY/WX    TMP DP  RH WIND       PRES   REMARKS
AMES           MOSUNNY   61  46  57 N14       29.75F
ANKENY *       PTSUNNY   57  45  62 NW12      29.77S
BOONE *        PTSUNNY   57  45  62 NW14      29.76S
CHARITON *     LGT RAIN  54  50  87 NE12      29.76S
DES MOINES     LGT RAIN  57  49  74 N10       29.76S
GRINNELL*      MOSUNNY   58  46  65 NW7       29.76F
KNOXVILLE *    CLOUDY    59  43  55 NW8       29.74F
MARSHALLTOWN   PTSUNNY   58  46  64 NW8       29.73F
NEWTON *       PTSUNNY   59  48  67 W8        29.74S
PELLA *        MOSUNNY   58  43  58 NW8       29.76F
PERRY *        CLOUDY    57  50  76 NW13G21   29.78S
$$

IAZ004>006-015-016-023>025-035-036-240000-
   NORTH CENTRAL IOWA

CITY           SKY/WX    TMP DP  RH WIND       PRES   REMARKS
ALGONA *       CLOUDY    54  48  82 NE20      29.79R
CLARION *      MOSUNNY   54  50  87 N16       29.77R
ESTHERVILLE    PTSUNNY   53  49  86 N17       29.80R
FORT DODGE *   PTSUNNY   52  46  82 N5        29.78S
MASON CITY     CLOUDY    53  47  79 N13       29.78S
FOREST CITY *  CLOUDY    54  45  71 N9        29.78S
WEBSTER CITY * CLOUDY    57  45  62 N17G23    29.74S
IOWA FALLS *   CLOUDY    57  47  68 NW9       29.76S
$$

IAZ007>011-017>019-026>030-037>042-050>054-066-240000-
   NORTHEAST IOWA

CITY           SKY/WX    TMP DP  RH WIND       PRES   REMARKS
CEDAR RAPIDS   LGT RAIN  55  52  89 N9        29.73S
CHARLES CITY * CLOUDY    55  50  82 N15       29.75S
CLINTON *      MOSUNNY   61  51  70 SE5       29.70F
DECORAH *      CLOUDY    54  52  94 W7        29.72S
DUBUQUE        LGT RAIN  54  52  93 N9        29.71R FOG
MONTICELLO *   MOSUNNY   59  48  67 NW9       29.71R
OELWEIN *      CLOUDY    55  50  82 N9        29.73F
WATERLOO       PTSUNNY   58  47  66 N8        29.73S
$$

IAZ064-065-067-068-078-240000-
   EAST CENTRAL IOWA

CITY           SKY/WX    TMP DP  RH WIND       PRES   REMARKS
DAVENPORT      CLOUDY    57  52  83 NW22G28   29.71S
IOWA CITY      CLOUDY    59  47  64 NW10      29.74S
MT. PLEASANT * LGT RAIN  58  48  69 NW10      29.73F
MUSCATINE *    CLOUDY    61  50  67 NW13      29.72S
QUAD CITIES    MOSUNNY   64  48  56 NW6       29.69F
$$

IAZ062-063-075>077-085>089-095>099-240000-
   SOUTHEAST IOWA

CITY           SKY/WX    TMP DP  RH WIND       PRES   REMARKS
BURLINGTON     CLOUDY    64  51  62 NW13G20   29.71S
FAIRFIELD *    CLOUDY    57  46  67 NW10      29.73F
FORT MADISON * PTSUNNY   63  52  67 NW15G24   29.73S
KEOKUK *       CLOUDY    63  48  59 NW13G18   29.72R
OSKALOOSA *    CLOUDY    59  46  61 NW13      29.74F
OTTUMWA        CLOUDY    59  46  62 NW10      29.74F
WASHINGTON *   CLOUDY    59  48  67 NW10      29.74F
$$

ABBREVIATIONS USED IN REMARKS
   TC - TEMPERATURES IN CELSIUS
  WCI - WIND CHILL INDEX
   HX - HEAT INDEX
  VSB - VISIBILITY
$$





USA.gov is the U.S. government's official web portal to all federal, state and local government web resources and services.